This is the latest recevied weather packets stored in our database for station/object W5GBS-9. If no packets are shown the sender has not sent any weather packets the latest 10 day(s).
| Time | Temp. | Humidity | Pressure | Rain* | Wind** | Luminosity | Snow |
|---|---|---|---|---|---|---|---|
| 1787797559 | 32.78° C | 100% | 1012.1 hPa | 0 mm | - | - | - |
| 1787796118 | 33.33° C | 100% | 1012.1 hPa | 0 mm | - | - | - |
| 1787795397 | 33.33° C | 100% | 1012 hPa | 0 mm | - | - | - |
| 1787793956 | 34.44° C | 100% | 1011.7 hPa | 0 mm | - | - | - |
| 1787792515 | 35.56° C | 100% | 1011.7 hPa | 0 mm | - | - | - |
| 1787791794 | 36.11° C | 100% | 1011.6 hPa | 0 mm | - | - | - |
| 1787791073 | 36.67° C | 100% | 1011.6 hPa | 0 mm | - | - | - |
| 1787787470 | 38.33° C | 100% | 1011.6 hPa | 0 mm | - | - | - |
| 1787786749 | 38.33° C | 100% | 1011.5 hPa | 0 mm | - | - | - |
| 1787786028 | 38.33° C | 100% | 1011.7 hPa | 0 mm | - | - | - |
| 1787785308 | 38.33° C | 100% | 1011.6 hPa | 0 mm | - | - | - |
| 1787784587 | 38.33° C | 100% | 1011.9 hPa | 0 mm | - | - | - |
| 1787783866 | 38.89° C | 100% | 1011.7 hPa | 0 mm | - | - | - |
| 1787780263 | 38.89° C | 100% | 1012.6 hPa | 0 mm | - | - | - |
| 1787777380 | 38.33° C | 100% | 1013.1 hPa | 0 mm | - | - | - |
| 1787775939 | 38.33° C | 100% | 1013.4 hPa | 0 mm | - | - | - |
| 1787775219 | 38.33° C | 100% | 1013.9 hPa | 0 mm | - | - | - |
| 1787774497 | 38.89° C | 100% | 1013.8 hPa | 0 mm | - | - | - |
| 1787773777 | 37.78° C | 100% | 1014.1 hPa | 0 mm | - | - | - |
| 1787773056 | 37.22° C | 100% | 1014.2 hPa | 0 mm | - | - | - |
| 1787770173 | 37.22° C | 100% | 1014.8 hPa | 0 mm | - | - | - |
| 1787769453 | 37.78° C | 100% | 1014.9 hPa | 0 mm | - | - | - |
| 1787768732 | 37.22° C | 100% | 1014.9 hPa | 0 mm | - | - | - |
| 1787768011 | 36.67° C | 100% | 1015.2 hPa | 0 mm | - | - | - |
| 1787767291 | 36.67° C | 100% | 1015.2 hPa | 0 mm | - | - | - |
* Rain latest hour (hover to see other rain measurements)
** Current wind speed in m/s (hover to see current wind gust speed)